Starlink 31218

operational
NORAD ID: 58895 Int'l Des: 2024-020 Owner: SPXS Country: US Constellation: starlink
LEOCIRCULAR

About Starlink 31218

Description loading...

Live Position

Loading 3D Globe...

Upcoming Passes

Altitude History

Altitude vs Time

uPlot chart will show altitude changes over time

Two-Line Element Set

1 58895U 24020V 25259.13356324 .00000154 00000-0 17337-4 0 9998
2 58895 53.1611 53.3663 0001060 77.9535 282.1585 15.30192436 91345
Epoch: Sep 16, 2025 • Age: 13 hours

Current Status

Altitude 476.5 km
Velocity 7.63 km/s
Sub-Earth Point 29.11°N, 35.06°W
Launch Date Jan 29, 2024
Age 1.6 years
Type internet

Technical Details

Classification Payload
Mass 730.00 kg
Dry Mass 700.00 kg
Total Mass 730.00 kg
Length 0.30 m
Diameter 4.10 m
Span 29.00 m
Shape Box + pan
Manufacturer SPXS
Bus Type Starlink V2M
Phase Status In Orbit
Owner/State SPXS/US

Large Constellations

Loading constellations...